GFSGL_500_rhum_057.txt.gz
RH
7 11 10 19 10 12 15 15 19 23 20 19 14 12 10 10 8 6 5 11 12 14 9 5 4 8 12 11 12 13 14 16 22 26 28 30 36 34 36 37 35 38 48
7 8 11 13 12 11 13 15 12 13 29 26 26 19 11 10 9 8 5 7 10 11 14 7 4 6 9 10 10 11 12 17 21 23 22 28 25 28 31 28 41 41 49
6 6 9 11 16 15 13 14 14 8 7 18 22 22 14 10 10 10 9 8 8 10 12 14 5 4 7 9 10 11 12 15 18 18 21 23 19 24 26 28 29 33 34
39 11 6 10 12 17 17 12 15 13 6 5 4 7 13 7 9 11 10 10 9 9 11 12 12 4 5 8 9 11 12 15 16 17 18 17 16 18 21 22 25 27 23
54 55 18 5 10 13 17 10 12 13 10 6 5 4 6 8 9 11 10 10 14 12 11 14 13 10 4 7 8 9 11 13 14 16 18 16 14 15 15 17 19 25 26
66 60 47 7 5 11 16 21 15 13 12 9 6 5 4 6 9 10 10 11 16 18 13 14 14 12 8 5 6 9 10 11 14 18 18 17 14 14 16 18 18 27 27
62 73 52 28 4 5 10 16 19 15 14 11 10 7 5 4 6 8 10 11 18 24 13 12 13 13 10 6 5 7 10 12 14 16 20 14 14 13 20 28 33 39 45
82 80 60 42 8 4 6 10 20 22 14 13 9 8 6 4 4 7 9 10 12 25 24 12 11 9 9 8 6 5 8 12 15 18 19 14 17 33 34 31 37 38 63
71 87 66 42 18 4 5 7 10 20 22 21 17 12 7 6 4 4 8 10 10 14 25 24 11 8 10 10 7 6 8 11 15 21 17 28 33 32 29 44 59 64 63
54 86 86 66 34 8 7 7 6 9 13 23 25 24 17 9 7 6 4 10 10 8 20 27 22 10 8 12 8 7 13 16 17 18 22 30 36 37 55 66 76 81 78
50 71 80 92 70 33 10 8 8 8 8 11 17 16 16 20 17 11 7 4 9 10 10 19 30 19 10 13 8 8 17 16 19 19 25 34 46 54 75 80 85 75 63
45 75 90 77 90 70 37 17 9 7 8 7 7 7 7 5 6 12 10 7 4 10 8 10 28 30 12 15 12 16 19 22 26 27 35 51 56 78 76 68 75 68 62
42 79 98 68 70 77 63 53 28 12 8 7 8 7 5 4 4 4 6 6 5 8 8 9 21 28 12 15 18 20 23 27 30 35 49 65 75 72 67 73 71 65 57
33 46 81 69 68 61 65 63 54 39 27 16 8 8 7 8 9 7 4 5 4 9 7 8 22 28 15 15 23 27 27 29 30 35 65 78 76 68 83 79 74 67 64
14 29 60 72 66 69 63 64 60 53 40 24 20 10 8 7 7 9 5 4 13 12 9 9 21 30 19 17 21 24 26 26 31 49 70 73 72 76 77 78 67 66 59
13 11 42 65 72 68 69 56 48 55 54 46 31 18 10 8 5 7 6 8 14 11 8 13 28 31 24 17 19 23 32 46 52 73 81 77 77 83 78 62 49 48 38
12 11 23 55 75 68 67 61 44 54 61 69 82 24 12 8 6 4 5 8 10 15 12 26 35 36 39 42 49 73 77 77 82 82 81 84 84 79 70 44 31 32 32
9 12 13 35 41 54 45 68 51 51 58 60 74 71 17 6 5 4 6 8 9 12 22 38 55 75 85 95 92 86 83 84 84 74 75 81 90 71 57 50 40 24 10
16 11 30 20 25 29 37 49 54 60 57 56 61 72 52 22 9 4 7 10 12 11 24 34 57 62 68 79 92 96 95 96 84 72 86 88 78 69 54 39 18 10 10
17 14 20 32 26 36 49 46 45 67 75 85 80 85 91 57 40 14 10 24 30 26 40 49 75 95 97 91 96 97 96 94 92 79 83 83 77 41 24 14 11 14 20
18 14 12 14 21 11 48 60 55 62 90 91 87 86 93 95 74 58 52 52 64 84 55 69 84 90 90 91 95 94 95 95 93 97 84 71 36 23 18 17 20 26 29
28 14 12 10 8 24 26 53 72 98 90 86 90 85 91 96 94 70 72 88 92 83 77 72 70 76 87 87 90 94 92 96 95 81 62 40 34 32 31 33 33 32 33
38 27 31 36 40 42 47 60 63 74 83 97 90 86 87 97 96 97 92 85 86 74 78 77 70 97 98 94 93 92 96 92 84 48 35 31 29 30 30 31 35 36 33
65 47 41 51 68 72 64 76 96 95 92 81 96 96 96 96 96 96 73 67 53 55 47 55 60 94 87 87 72 71 66 58 49 44 46 48 44 44 44 45 43 44 50
93 85 73 54 92 74 80 87 88 97 99 98 95 96 95 89 86 82 71 47 49 49 51 51 55 62 66 75 71 69 66 70 72 69 69 65 62 68 68 67 63 57 57
96 95 91 77 76 61 88 95 98 98 97 94 98 94 79 84 90 93 89 54 53 62 71 71 72 80 86 78 80 88 94 94 87 79 78 77 83 77 72 72 70 63 60

GFSGL_500_rhum_060.txt.gz
RH
13 11 5 7 11 15 18 19 22 24 14 11 13 11 10 10 8 6 5 11 12 13 5 4 7 12 16 14 13 15 16 18 24 27 29 26 28 26 30 30 33 30 31
12 12 11 5 12 12 14 18 18 19 25 17 15 14 12 10 9 8 6 7 9 10 12 6 5 8 10 12 13 12 15 19 22 24 22 23 22 24 30 28 24 27 34
8 10 12 12 12 18 13 16 18 16 14 26 25 24 19 12 9 9 9 8 9 9 11 12 6 4 8 11 10 10 12 16 19 20 19 19 17 19 25 24 20 24 29
23 7 9 12 14 14 17 15 16 17 15 8 18 31 27 19 11 9 10 9 10 10 9 11 12 6 5 7 9 10 11 13 16 16 17 17 16 17 18 19 20 26 31
58 12 6 8 12 14 16 22 16 16 17 12 7 5 7 16 12 7 10 10 10 15 14 10 12 12 7 5 8 9 11 12 14 15 16 17 15 15 17 16 18 25 34
70 70 54 10 7 11 13 14 24 16 16 16 10 6 5 5 8 7 7 9 11 13 20 12 11 12 11 6 5 8 9 10 12 14 14 18 14 15 15 15 19 28 42
60 98 72 60 35 7 9 12 21 18 14 17 16 10 7 5 5 6 8 9 10 11 20 21 11 12 11 10 7 5 7 10 10 11 14 17 18 18 17 17 22 33 44
39 70 78 69 52 23 6 9 12 22 23 18 16 14 11 8 5 4 5 7 9 12 13 25 20 11 10 9 9 6 5 6 11 11 14 16 20 20 15 20 31 32 55
39 53 57 66 56 35 7 6 10 12 17 21 19 16 11 10 8 6 4 5 8 10 12 21 25 22 13 9 10 10 7 5 7 11 14 17 22 20 18 31 34 41 60
63 55 56 76 52 36 8 5 10 10 13 24 25 17 16 14 9 6 5 4 5 9 11 10 20 24 24 16 8 10 11 8 5 7 12 19 23 21 28 36 51 70 75
95 93 70 88 53 33 10 6 8 12 11 15 22 22 22 21 19 12 7 5 5 5 9 11 10 14 21 27 22 8 11 9 7 10 15 23 23 27 38 52 65 75 68
59 78 92 87 56 40 16 9 10 11 12 10 11 11 18 24 25 25 24 20 16 9 6 5 11 10 11 24 32 14 12 11 7 13 19 22 24 31 39 57 66 79 75
69 91 94 94 78 66 49 32 9 10 10 10 10 11 10 10 10 9 8 7 8 12 9 7 6 9 9 14 29 20 13 13 12 16 18 22 25 37 47 68 80 76 76
89 84 82 95 88 85 86 67 39 22 14 10 9 9 9 9 9 7 6 5 5 5 8 8 8 8 8 10 24 23 13 16 18 20 22 25 28 38 55 76 89 78 74
72 67 74 90 96 96 93 94 65 57 57 48 34 23 12 9 9 8 8 8 9 6 8 14 10 10 7 8 17 28 14 18 20 21 26 32 37 38 65 87 80 68 66
51 81 55 62 87 94 94 80 78 68 63 60 59 43 32 26 16 10 8 8 8 10 16 16 23 25 18 12 14 28 22 16 21 23 26 30 33 50 67 78 74 67 70
38 31 22 24 47 80 91 73 76 74 73 69 67 62 67 51 54 27 13 8 7 11 14 12 15 17 18 14 11 25 31 22 19 20 28 38 49 60 80 82 80 78 71
36 40 32 15 33 39 63 77 78 76 67 62 73 80 84 88 92 79 52 14 15 14 23 15 8 13 17 12 10 23 31 30 28 25 44 79 98 89 83 85 84 78 48
38 31 17 9 12 28 40 63 72 74 73 67 69 77 84 82 96 89 82 28 13 19 24 21 18 16 15 16 21 29 40 48 64 79 79 87 95 94 91 95 84 70 72
23 18 12 11 11 15 21 48 58 65 55 49 80 83 89 87 87 83 76 81 43 8 7 7 8 10 12 24 28 49 67 93 95 88 88 93 93 87 92 88 84 88 73
28 22 21 20 13 10 24 36 49 49 53 35 46 72 90 96 90 74 71 100 94 56 22 14 26 42 52 52 73 63 76 93 96 94 84 90 88 96 96 95 96 86 44
33 25 17 25 26 19 15 14 65 68 55 54 45 62 79 93 88 81 72 85 95 91 80 59 66 92 93 94 88 91 93 86 74 77 90 85 85 98 96 96 92 44 36
51 40 17 27 29 25 23 19 19 38 48 54 69 73 67 79 88 82 97 97 96 96 96 96 96 92 86 86 92 98 94 87 84 99 96 92 86 96 96 86 46 33 31
61 44 25 17 33 32 33 27 23 18 28 40 31 64 86 94 96 93 86 86 97 95 95 91 81 71 74 73 58 57 74 78 90 81 74 70 60 56 44 33 29 33 38
52 48 21 9 17 29 44 40 36 35 35 33 50 60 70 78 91 94 95 94 90 97 95 87 74 62 56 50 43 46 59 72 72 76 72 61 50 49 48 45 46 45 46
45 34 26 20 26 31 55 50 45 63 85 69 97 76 89 94 97 93 93 95 95 97 91 98 99 79 56 50 50 52 59 62 73 80 71 73 76 72 62 56 56 61 62

GFSGL_500_rhum_063.txt.gz
RH
13 38 43 19 19 21 22 24 28 24 13 13 18 16 18 11 11 10 8 12 15 10 6 14 18 18 20 17 15 13 16 18 23 27 26 25 25 27 29 30 30 31 28
15 14 18 26 16 16 20 20 22 27 20 24 15 15 15 11 10 9 6 5 8 12 15 6 9 17 19 18 15 15 16 20 22 23 21 22 21 21 24 28 26 22 21
15 14 16 11 11 12 14 18 19 19 24 20 15 13 13 13 11 10 10 9 8 6 11 15 9 6 14 17 16 14 14 17 20 21 20 18 18 19 20 22 20 20 18
8 12 14 14 11 6 10 14 17 18 17 19 24 20 20 18 16 11 11 11 11 10 8 9 14 13 6 10 14 14 12 13 16 19 19 18 18 17 16 17 17 17 18
40 12 10 14 14 13 9 16 15 17 20 18 12 24 29 31 23 17 12 11 11 11 11 11 10 13 15 7 7 10 12 12 13 15 18 18 18 17 16 17 17 16 21
47 44 16 9 11 14 14 14 16 16 17 20 18 10 9 19 24 20 13 10 10 11 12 11 16 12 14 16 9 6 8 11 12 13 14 16 15 15 15 16 16 16 26
48 54 54 23 8 10 14 14 16 18 19 17 19 17 11 8 7 11 14 11 10 11 12 12 16 18 16 17 17 12 6 8 10 11 12 12 12 12 15 15 17 17 28
50 45 50 40 24 9 9 13 14 16 21 21 17 20 18 12 8 6 6 7 8 11 11 12 15 22 20 18 19 18 15 9 6 8 10 10 11 13 15 16 19 17 28
52 42 43 43 46 30 14 8 10 14 16 22 17 15 20 19 14 10 6 5 5 8 10 10 12 19 25 25 17 17 16 16 10 6 6 10 11 12 14 17 20 18 36
63 52 44 52 57 54 44 22 7 8 12 16 18 14 19 20 16 13 12 8 6 5 6 8 11 11 14 24 24 24 16 18 10 12 8 6 9 12 13 16 19 23 38
72 70 61 50 65 68 54 53 37 6 7 11 16 19 21 20 19 14 11 9 8 6 5 5 6 9 11 10 15 20 27 23 15 9 11 8 6 8 12 17 18 28 39
66 65 75 65 55 55 61 62 56 27 14 10 12 14 18 21 21 19 18 15 15 10 7 9 9 7 6 10 11 11 25 28 26 13 10 12 9 10 14 22 21 28 38
80 57 81 90 74 75 82 75 46 22 9 6 13 10 14 23 25 22 25 27 27 28 27 21 19 15 10 6 8 10 11 19 28 22 12 12 9 11 19 23 24 28 36
46 46 75 69 95 92 95 95 70 22 9 7 9 11 11 14 14 14 15 16 16 16 12 11 12 12 12 10 7 8 9 11 17 27 17 14 13 14 20 22 29 29 38
39 38 36 58 72 94 96 96 74 42 16 11 12 13 13 12 13 13 13 12 12 11 10 9 8 7 8 10 10 8 8 8 12 26 23 16 16 19 22 22 28 34 38
35 50 23 31 55 79 92 94 90 69 68 31 16 13 12 12 22 18 12 12 11 10 8 7 7 16 21 17 14 12 10 8 8 14 26 20 17 20 24 26 27 37 38
46 38 25 52 67 92 98 87 100 95 92 74 61 58 53 40 35 41 28 40 19 12 10 8 9 13 22 22 21 24 24 25 20 17 22 25 15 20 26 33 35 47 58
41 42 40 42 25 18 41 69 83 95 97 100 92 88 66 78 75 70 72 75 82 36 22 11 12 17 18 23 24 27 25 20 18 14 24 32 30 26 31 41 43 59 88
50 60 43 41 38 44 46 79 78 96 87 74 69 88 79 63 70 75 91 94 100 69 46 28 26 30 29 22 24 17 14 19 19 18 21 26 31 49 45 45 45 61 82
69 40 61 45 39 48 57 66 62 78 97 78 70 72 74 69 62 71 78 94 91 85 75 39 38 37 34 34 37 38 40 38 41 50 54 68 75 82 84 82 92 88 93
53 22 22 31 47 34 28 22 29 41 82 83 89 87 84 87 88 94 99 84 90 87 75 76 80 91 78 36 22 28 39 57 61 89 94 95 78 77 92 92 94 88 91
33 62 52 49 47 45 32 34 28 21 36 53 77 85 83 78 81 87 96 96 94 86 70 71 73 95 96 94 80 60 68 79 89 95 96 97 97 90 86 83 87 82 93
32 78 89 78 60 50 38 33 13 9 10 21 32 48 65 67 64 64 66 79 93 86 80 74 83 82 96 94 96 95 96 95 95 97 97 97 100 95 85 81 75 88 94
20 38 76 78 68 65 50 25 16 12 12 13 13 25 30 40 52 55 41 43 72 88 94 89 74 81 88 96 97 96 96 95 96 95 99 100 78 79 91 82 73 62 62
9 12 30 58 74 42 32 26 21 20 18 23 24 20 18 19 45 66 65 52 53 63 78 82 95 95 93 93 97 97 74 63 73 75 67 51 55 67 73 70 72 56 56
9 6 4 25 48 57 36 33 34 19 17 17 22 22 24 22 20 20 31 50 57 68 80 89 94 95 95 97 96 96 75 71 72 61 52 46 48 62 65 72 75 64 65

GFSGL_500_rhum_069.txt.gz
RH
34 42 30 25 28 28 33 30 40 38 36 34 36 38 20 24 17 20 12 7 9 10 11 11 12 13 14 13 13 12 14 18 24 26 27 24 20 19 22 23 23 23 22
19 31 40 22 24 25 28 27 33 32 42 35 25 28 30 24 9 12 21 11 6 6 10 12 13 14 14 14 14 12 11 14 19 23 26 26 21 19 18 19 20 19 17
14 23 35 24 21 26 25 25 29 29 29 22 26 21 29 24 23 11 13 18 10 11 6 7 10 12 14 14 14 13 13 14 16 19 22 23 20 18 18 18 18 16 15
17 14 27 26 17 20 24 22 24 26 25 18 13 16 17 18 13 11 9 8 7 8 9 10 8 6 8 12 14 13 13 14 16 18 19 20 19 16 16 17 18 18 15
15 18 17 21 37 21 16 19 21 23 23 22 22 16 18 14 14 12 11 11 10 10 10 9 9 9 10 8 8 11 12 14 15 15 16 17 18 15 13 15 18 18 19
42 17 18 17 15 23 32 21 15 18 20 20 21 23 22 18 15 15 15 14 14 12 12 11 12 14 14 10 11 10 7 10 12 12 12 13 14 12 11 12 16 17 17
90 40 17 16 16 15 14 22 23 15 14 17 19 20 20 22 24 24 24 23 22 19 13 11 11 13 15 20 19 13 12 12 8 7 10 12 12 12 11 12 13 15 15
96 92 61 38 16 13 13 13 13 16 13 12 13 16 17 18 18 16 17 22 27 27 19 13 9 10 13 15 20 24 18 15 15 14 12 8 7 7 7 8 9 11 11
92 96 83 64 60 42 20 12 12 11 9 9 8 10 12 14 17 18 17 12 9 7 7 11 10 9 10 12 15 19 25 25 22 18 14 14 13 12 11 12 10 7 8
78 97 89 69 62 72 66 54 28 13 11 10 8 6 9 15 13 13 16 16 14 11 7 6 8 8 10 10 10 12 16 16 23 21 22 23 24 24 21 17 12 11 9
65 90 96 91 84 68 71 68 58 55 28 12 15 13 10 13 16 16 13 12 14 17 15 9 7 5 5 6 7 8 10 12 12 12 13 16 21 26 27 26 26 15 12
54 54 75 91 95 84 72 76 66 58 56 46 29 22 14 13 14 15 16 18 17 14 15 17 13 10 8 6 5 5 6 8 10 10 10 11 11 12 14 15 20 26 18
38 40 52 73 97 98 85 85 75 62 48 49 45 45 22 14 13 15 15 14 16 19 18 14 16 15 13 10 8 7 5 5 5 6 6 6 6 7 9 10 11 14 23
41 38 46 54 86 97 94 91 82 65 60 52 50 57 53 28 20 17 19 16 13 13 20 17 14 14 15 13 12 12 13 11 8 9 16 17 14 12 10 7 6 8 9
42 42 34 55 91 98 100 98 95 90 72 55 68 71 64 58 64 61 61 58 32 16 12 18 21 20 21 21 21 23 24 24 24 25 21 16 12 10 9 9 8 8 8
49 48 31 38 67 77 86 92 95 96 87 70 64 74 78 75 85 79 65 56 55 49 37 17 14 17 21 24 22 19 20 21 18 15 13 10 8 9 9 8 10 11 10
47 59 94 28 59 55 68 72 78 100 85 90 78 82 86 86 90 97 85 80 70 60 42 28 18 18 24 26 25 22 16 12 11 10 9 8 7 10 17 18 18 17 20
43 50 72 72 42 41 29 58 71 74 92 96 92 84 92 82 87 84 89 79 69 55 37 23 28 28 36 42 41 32 26 23 19 13 10 13 17 20 22 23 25 23 23
38 46 50 99 81 53 24 36 38 80 94 73 69 80 96 90 86 92 96 94 75 58 39 25 30 47 53 56 54 62 54 47 30 28 33 33 30 29 28 30 33 32 32
27 40 46 62 81 58 38 40 48 80 53 60 61 78 77 57 61 61 70 92 85 54 37 29 29 53 66 65 64 60 57 76 62 60 54 55 64 75 66 54 42 47 50
17 26 49 49 86 80 42 37 45 83 56 51 52 77 74 50 48 51 74 95 93 74 54 38 49 67 90 96 97 84 64 53 54 65 76 70 68 69 69 70 64 75 85
6 17 27 45 47 75 50 38 48 76 45 41 52 65 70 47 54 40 68 99 96 97 84 67 72 88 95 96 91 76 52 57 70 83 79 70 52 47 57 66 66 70 82
5 6 14 28 36 35 44 54 51 55 55 36 53 49 45 56 53 54 47 92 97 94 96 86 92 96 98 83 72 52 27 31 64 72 63 64 58 50 57 75 77 80 80
35 8 6 12 29 42 56 67 53 55 66 60 41 41 51 57 53 87 72 58 73 79 92 91 96 95 90 68 53 55 52 54 59 59 64 68 69 76 85 92 82 78 85
44 28 6 6 9 31 53 67 66 75 90 77 50 52 49 56 62 64 58 38 52 58 70 78 72 79 84 84 73 61 53 64 55 60 64 70 88 93 94 92 82 77 80
80 54 22 7 5 9 18 24 65 78 89 73 78 73 60 47 44 50 60 37 49 65 61 50 40 36 36 42 48 37 32 29 42 46 31 45 65 68 69 64 92 100 98

GFSGL_500_rhum_072.txt.gz
RH
12 19 36 28 29 34 33 34 30 35 28 25 45 42 35 30 18 15 9 9 7 9 10 9 10 12 12 11 12 14 20 23 24 24 22 18 12 16 20 20 20 20 17
18 23 42 34 23 29 33 30 26 34 31 27 50 42 37 28 17 26 19 7 8 9 10 10 11 12 12 13 11 12 14 16 18 22 21 19 11 13 15 18 18 16 14
15 17 34 36 24 23 30 28 27 32 32 31 30 44 37 29 8 19 21 12 14 5 7 11 11 12 13 13 12 12 12 12 14 16 18 18 14 13 14 15 14 13 12
14 16 17 29 39 26 24 26 26 28 30 34 35 21 34 30 27 26 24 21 18 14 9 6 8 10 12 12 12 12 12 12 13 14 15 15 16 15 14 14 14 13 13
16 16 19 18 26 40 28 25 24 24 29 28 29 18 15 28 26 15 14 19 19 14 9 8 9 9 8 8 9 11 14 13 13 13 14 14 14 14 12 12 14 16 16
19 16 16 18 18 34 43 29 24 24 23 26 25 16 12 14 15 15 12 11 10 9 9 9 10 11 11 10 11 10 7 8 12 13 13 14 13 11 10 10 10 12 15
67 23 18 16 17 16 38 40 28 25 23 22 23 22 21 18 17 14 14 15 16 17 16 11 10 10 11 15 18 16 12 12 12 9 8 8 9 8 8 8 9 9 10
96 87 45 21 18 18 17 22 34 36 32 23 19 20 21 22 23 23 22 21 20 21 24 24 18 11 10 11 14 18 21 21 15 13 13 11 9 8 8 9 9 8 7
82 93 93 74 88 37 18 17 18 19 20 25 26 20 16 18 19 20 20 19 18 20 24 29 26 18 13 8 9 13 16 17 22 25 21 18 16 15 14 13 13 12 11
45 64 71 85 84 95 20 15 20 24 24 15 13 16 16 12 12 14 16 16 16 17 17 13 11 9 11 12 8 8 10 13 14 17 20 21 24 22 20 19 21 23 27
46 64 68 62 50 95 37 56 59 42 31 25 12 11 11 12 10 8 10 12 13 13 16 18 18 15 9 6 6 5 7 10 9 8 10 11 12 11 11 10 10 12 19
31 43 65 52 37 49 96 99 76 75 77 66 52 29 19 14 13 12 8 8 14 16 14 15 16 18 18 12 8 6 5 5 5 5 6 8 9 9 9 9 9 10 10
25 29 38 62 60 50 58 92 94 78 72 77 79 76 66 62 32 14 18 14 12 12 14 16 18 21 18 16 14 13 12 10 9 7 6 5 6 6 6 7 10 11 10
15 24 31 34 48 58 49 48 75 87 89 67 65 73 86 65 56 52 38 29 19 12 13 14 14 15 20 19 15 17 16 14 12 13 17 17 13 12 15 21 21 16 10
23 20 27 34 45 42 74 37 43 65 90 98 64 67 71 71 58 52 53 26 18 16 19 16 17 16 13 15 19 17 20 18 16 16 18 21 23 24 23 17 15 11 10
27 26 25 22 30 41 34 22 35 39 53 96 77 64 82 71 70 72 66 69 79 64 63 57 62 58 34 15 14 19 22 21 22 23 23 21 20 17 14 11 9 8 7
22 29 28 27 22 24 35 22 15 28 38 94 87 62 69 80 68 75 76 70 66 58 53 64 72 67 60 46 29 17 15 16 17 20 23 25 22 20 14 9 9 11 15
4 13 28 34 29 24 25 22 16 28 50 90 86 96 91 73 73 67 78 86 81 75 69 75 80 66 57 50 42 25 20 24 33 35 35 32 27 25 20 18 21 23 24
6 4 6 23 33 31 27 24 14 16 26 78 87 96 98 80 70 66 70 82 95 95 96 83 75 80 63 36 28 30 34 40 46 45 46 53 54 46 39 39 45 45 49
19 14 5 4 19 29 32 29 23 15 18 51 73 94 93 93 91 74 72 78 89 84 97 94 99 85 78 43 27 31 40 49 58 57 59 65 83 80 80 76 73 72 64
20 24 20 5 3 17 26 27 22 22 50 42 66 68 78 69 49 96 96 94 73 87 78 73 83 70 84 68 36 32 34 45 58 70 82 74 70 65 67 69 63 75 70
33 35 38 21 6 4 17 25 24 20 54 31 43 54 48 41 90 95 74 93 94 72 56 52 48 64 74 91 57 38 42 61 77 89 94 90 76 59 50 66 71 70 60
41 34 32 35 21 4 5 20 25 22 26 41 42 32 46 66 86 67 73 95 89 56 46 49 53 97 97 96 87 56 47 60 75 100 82 86 93 67 43 45 49 50 59
33 36 43 55 33 10 4 8 22 25 23 43 64 28 27 49 88 89 93 80 91 83 78 48 45 92 95 96 96 96 94 96 95 97 96 91 82 78 78 61 70 67 66
28 39 51 60 62 50 10 5 12 24 26 26 61 43 38 31 62 83 86 87 93 75 53 42 57 79 69 62 67 73 80 90 96 97 95 96 95 96 89 64 44 52 47
47 48 62 71 63 66 63 25 6 14 24 24 26 45 48 37 50 81 92 96 98 76 62 48 53 52 45 40 60 61 56 54 78 77 51 40 61 52 25 18 18 19 21

GFSGL_500_rhum_075.txt.gz
RH
19 18 19 26 25 28 34 29 38 42 40 32 27 42 50 18 22 20 10 13 8 9 14 13 11 12 11 11 13 18 22 26 26 23 21 18 14 19 20 21 19 19 18
16 16 14 14 28 25 27 32 30 35 36 31 22 34 46 22 21 14 10 8 8 9 8 9 9 11 12 12 12 13 16 19 21 23 21 19 14 13 15 16 18 17 15
15 15 14 12 23 36 24 27 31 32 30 31 30 42 37 36 29 19 20 10 6 7 8 9 9 10 13 12 14 12 12 13 14 16 16 16 16 13 13 14 16 16 14
26 17 15 15 21 41 33 24 29 31 30 32 30 26 46 39 25 22 40 25 9 8 4 5 8 9 11 11 11 13 12 13 12 13 13 14 16 16 17 16 16 15 15
40 29 32 20 17 24 41 36 24 29 30 34 34 33 24 32 33 30 26 29 30 14 11 8 6 5 5 7 9 11 11 14 12 12 12 12 12 13 12 12 12 13 14
89 72 23 18 20 22 21 40 50 32 29 29 34 32 34 21 25 30 25 22 19 19 14 8 8 8 8 8 8 7 7 7 8 10 11 10 11 10 10 10 10 10 11
95 94 66 20 17 18 27 20 25 44 32 28 27 30 30 22 14 16 21 14 11 13 19 8 9 9 9 11 14 14 12 10 10 9 8 7 6 6 6 6 6 6 6
94 95 95 65 18 17 18 22 22 26 35 25 26 26 27 27 24 17 16 15 14 15 16 22 22 16 12 10 10 12 16 21 22 18 12 12 11 11 11 11 12 11 10
59 59 87 95 62 19 18 20 29 20 21 35 25 24 24 24 24 25 24 20 19 19 19 19 21 24 24 22 16 10 9 12 14 18 22 25 24 23 21 19 19 19 19
24 28 32 62 94 95 71 38 32 43 24 15 27 33 33 29 23 21 21 21 21 22 22 22 21 21 24 20 12 11 10 9 8 8 11 14 17 18 18 18 16 12 10
16 20 20 24 49 71 94 95 65 62 78 29 16 17 22 31 28 22 16 16 17 18 18 19 19 18 18 16 13 10 6 7 6 6 6 8 10 9 10 11 10 10 10
12 15 23 26 25 36 46 79 65 52 62 66 24 25 31 39 27 18 17 15 12 11 11 12 14 14 15 16 16 16 14 8 6 5 5 5 5 5 6 6 7 6 7
16 13 15 22 26 37 34 36 39 35 65 38 18 27 56 50 50 21 12 12 11 10 8 7 10 15 15 15 15 14 15 15 14 10 9 10 9 8 6 6 6 7 10
20 17 15 14 19 28 52 35 34 27 50 52 95 86 77 73 72 67 45 37 32 25 15 12 12 8 13 16 16 18 19 17 16 15 15 13 11 10 11 15 17 21 20
28 25 20 16 14 14 20 41 19 22 14 33 49 84 93 96 92 84 90 83 65 55 45 23 18 15 12 12 12 14 14 16 18 18 15 15 15 15 15 20 22 22 20
22 27 28 25 20 16 13 14 34 18 18 21 20 29 74 74 88 93 97 96 96 85 88 86 57 32 22 16 14 14 16 15 13 14 16 18 20 21 23 23 20 18 15
4 7 16 22 27 25 20 15 13 20 24 15 19 14 22 54 57 96 98 93 94 92 90 92 86 76 66 61 57 58 59 50 28 14 13 17 19 18 19 20 23 24 22
5 3 3 5 9 16 24 24 20 15 16 28 20 9 13 21 33 57 95 81 90 93 80 96 92 81 78 67 68 67 68 61 50 32 18 14 14 19 28 34 33 33 34
11 7 5 3 3 4 7 14 22 21 19 18 22 21 11 10 12 29 82 76 80 86 79 70 78 87 98 82 74 72 67 57 53 47 36 25 21 27 34 48 55 53 52
7 11 10 6 4 4 3 3 5 13 20 21 20 20 22 20 17 21 52 95 86 83 77 72 70 77 80 94 79 74 69 73 51 43 53 58 59 53 77 99 99 95 89
5 6 8 10 10 7 6 4 4 3 6 14 20 21 23 20 13 20 57 84 81 81 81 83 70 71 80 81 92 93 88 88 74 57 54 57 66 60 55 59 62 73 81
4 5 6 8 12 10 9 10 10 7 4 4 8 16 22 24 19 15 33 76 80 90 84 84 78 71 73 81 88 85 90 96 84 81 62 53 56 93 80 66 85 86 75
5 5 5 9 13 16 14 11 12 13 11 6 4 5 11 21 23 18 18 33 63 84 95 67 51 72 75 77 96 86 79 68 84 94 95 65 46 60 89 79 92 99 94
21 22 12 14 19 22 22 21 19 19 21 20 8 4 4 10 21 24 25 26 40 71 90 74 32 55 100 86 96 90 58 70 80 96 95 95 84 56 81 79 64 87 96
48 39 34 29 27 25 24 25 23 30 33 27 19 14 5 4 11 22 29 20 32 65 69 54 60 80 94 75 55 68 56 51 57 66 63 78 95 90 86 89 88 90 97
53 46 36 32 30 31 23 19 22 25 29 36 40 14 8 4 5 14 24 24 47 70 71 54 64 78 86 67 71 78 83 60 80 59 47 66 76 85 87 88 95 94 82

GFSGL_500_rhum_078.txt.gz
RH
12 17 18 19 22 18 28 29 28 36 46 42 64 49 51 34 19 25 26 24 18 13 12 14 11 18 12 11 13 18 25 26 25 25 24 21 17 21 21 20 21 20 20
12 16 18 17 22 25 22 26 30 29 38 36 34 41 50 44 24 34 26 16 27 15 12 16 16 10 11 12 13 16 20 24 23 22 20 21 18 14 15 16 15 17 15
20 11 16 20 20 18 27 27 26 29 33 36 34 26 32 56 42 51 36 18 21 18 8 12 9 9 11 10 11 12 14 16 18 18 18 18 17 16 14 13 13 15 16
68 45 21 15 17 13 24 36 33 31 34 32 33 32 36 48 39 38 45 41 21 21 13 8 10 8 14 18 12 15 12 13 12 13 13 13 14 14 14 15 15 14 14
94 73 45 55 40 22 15 38 49 34 32 32 30 36 39 51 56 38 23 38 46 27 28 20 7 6 7 11 14 10 10 9 10 10 10 10 10 10 11 12 12 12 12
94 79 64 98 99 33 23 27 43 51 36 36 30 33 38 40 37 41 39 29 30 28 28 25 9 8 8 7 6 6 6 11 19 18 13 9 8 11 11 9 8 8 8
97 96 95 81 69 83 52 32 18 30 40 40 33 28 34 34 36 26 31 34 27 27 32 26 23 10 8 9 10 10 11 10 10 9 9 9 9 8 8 8 7 8 8
91 94 96 95 96 95 57 30 26 30 23 38 34 29 27 32 32 27 16 20 26 18 18 32 29 19 11 13 11 10 11 14 16 19 22 21 17 15 13 13 12 9 10
28 44 68 61 93 100 93 72 42 26 24 32 42 39 27 29 28 29 24 14 14 16 16 14 16 24 26 24 21 17 14 10 8 8 10 16 20 22 24 24 24 22 22
28 23 23 24 32 91 87 92 83 42 33 38 42 38 36 30 23 25 26 25 16 16 17 16 15 15 17 20 23 22 17 19 10 7 5 7 10 12 14 14 15 14 13
24 23 21 21 22 24 46 64 81 61 35 27 29 35 39 40 36 27 24 24 23 22 22 24 24 24 23 22 19 16 15 14 11 7 5 6 8 9 9 7 7 7 8
12 11 12 14 13 12 18 20 18 23 80 96 75 39 50 52 35 22 39 31 24 21 20 20 20 21 20 19 18 17 17 16 15 14 10 7 6 5 5 5 5 5 5
18 18 14 12 13 12 11 8 8 10 14 41 77 64 56 44 63 52 36 33 28 36 26 18 16 16 16 16 15 14 13 13 14 14 16 15 10 7 7 8 8 6 6
24 20 18 17 15 14 13 14 10 7 7 9 18 32 27 43 50 65 44 36 44 54 45 22 21 15 12 11 10 11 14 15 15 14 14 16 16 15 14 13 11 10 9
35 33 29 23 19 16 15 15 14 13 10 7 8 10 18 42 56 53 47 57 63 76 85 53 35 29 23 14 10 7 7 11 15 16 15 16 18 18 15 14 15 15 15
20 27 32 33 31 26 20 17 15 16 17 14 10 8 12 14 43 45 72 74 75 95 95 78 77 54 48 49 31 16 10 8 8 10 11 12 14 14 16 18 17 18 20
4 6 10 17 24 28 29 27 20 19 16 18 17 13 9 10 11 30 38 72 87 93 96 94 86 96 60 64 86 61 34 25 20 15 11 12 16 16 14 13 16 20 20
9 7 4 4 4 9 14 18 24 26 23 18 16 20 16 11 10 9 12 23 41 73 58 69 83 91 95 82 89 96 86 59 49 56 53 53 50 51 45 23 13 12 13
9 11 10 7 5 4 3 4 7 11 17 22 22 21 23 22 16 12 10 7 12 33 48 43 62 91 92 87 81 86 92 82 80 57 49 58 63 62 56 51 47 29 22
8 6 6 8 9 8 7 5 4 4 5 6 12 18 21 22 23 22 18 13 10 8 12 20 30 78 85 93 91 96 90 78 72 80 77 69 73 69 70 68 64 81 81
8 5 4 5 5 7 8 9 8 5 4 3 3 4 6 12 18 20 21 20 14 10 11 13 16 44 82 87 87 82 82 74 79 94 91 81 77 80 80 67 64 77 100
8 7 6 4 4 4 5 7 8 8 6 5 4 3 3 3 6 9 15 20 22 20 15 12 13 16 81 76 83 86 78 82 78 81 91 94 96 92 95 90 66 60 70
6 6 5 5 4 4 4 4 5 6 6 7 7 6 5 4 3 3 4 6 12 18 22 20 13 13 17 72 88 92 85 82 87 96 96 96 96 97 96 90 85 76 64
7 6 6 6 6 5 4 3 3 4 4 5 7 7 6 6 6 5 3 3 3 6 10 19 20 19 16 33 77 92 98 95 86 75 79 97 97 97 96 96 96 93 98
11 10 8 8 8 8 5 4 3 3 4 4 5 6 9 10 10 10 11 9 5 3 4 9 15 20 23 20 40 76 93 93 89 76 84 98 83 88 68 67 53 56 53
24 21 22 50 75 56 37 19 7 4 4 5 5 6 9 13 12 11 12 16 15 11 7 3 5 12 19 24 23 44 77 74 62 55 80 90 93 90 62 56 44 44 51

GFSGL_500_rhum_084.txt.gz
RH
24 21 28 30 27 34 41 45 56 54 60 70 92 66 64 38 18 29 18 20 13 13 10 10 10 11 10 7 10 14 20 22 29 30 27 18 20 20 17 22 21 19 18
55 58 45 42 48 42 40 47 55 52 72 92 87 87 72 66 33 24 28 29 20 20 11 10 10 10 11 10 8 9 12 17 25 25 23 23 18 12 14 14 14 13 12
91 66 56 57 61 63 43 39 49 51 47 70 66 76 80 63 61 37 35 32 36 23 17 13 16 12 15 12 12 13 15 18 21 21 20 19 18 15 18 16 13 10 11
97 96 80 78 73 69 68 62 55 52 38 42 55 60 60 56 65 53 45 29 25 30 30 14 15 19 15 12 11 12 13 15 17 19 19 17 16 14 15 14 13 14 14
97 97 97 98 95 93 75 63 68 56 52 44 51 51 50 44 44 66 50 54 43 27 30 24 14 14 13 10 10 14 13 12 13 13 13 13 13 10 10 10 12 12 12
95 97 96 97 95 96 97 95 89 92 82 62 59 52 42 44 41 49 51 47 52 47 32 24 23 14 15 12 9 12 19 17 14 12 12 13 14 16 16 14 8 9 8
92 93 97 97 97 97 96 97 96 96 94 90 66 65 44 39 39 43 61 54 38 38 51 48 33 32 27 14 10 8 7 8 10 9 8 8 9 9 11 13 12 13 13
30 57 70 94 95 97 96 96 97 96 96 92 88 67 66 51 37 40 44 59 56 38 30 37 37 32 29 22 10 10 9 8 7 8 10 10 12 15 20 23 22 20 24
19 14 10 12 35 60 96 97 97 97 96 92 93 89 66 64 62 67 52 51 47 45 41 38 35 33 34 33 20 12 8 9 8 8 8 9 8 9 9 12 15 17 20
22 19 23 24 22 16 48 97 96 97 97 96 96 92 78 72 53 56 58 52 62 54 34 30 34 35 31 31 36 29 18 13 11 13 14 14 13 13 11 9 7 6 7
19 22 21 22 21 18 14 24 78 91 94 96 97 96 84 66 66 66 65 52 41 44 72 53 31 29 26 22 20 21 22 24 25 24 22 20 19 18 18 14 10 7 6
30 22 18 13 11 10 10 10 12 25 26 39 76 86 96 95 84 62 64 56 57 56 45 51 66 52 28 23 23 18 18 16 15 17 20 22 21 18 17 15 14 14 13
34 27 23 21 17 14 11 9 8 9 9 10 19 40 66 69 95 96 73 49 41 47 52 42 49 53 57 53 34 22 18 16 16 17 21 21 21 20 18 17 14 12 11
28 26 23 24 24 22 18 16 14 9 9 9 8 9 11 16 32 41 79 80 73 44 49 55 48 35 34 43 45 43 35 23 17 16 18 19 19 18 17 15 14 12 11
34 33 34 31 28 28 28 25 21 19 15 14 14 11 10 10 10 11 27 49 37 56 71 60 49 55 54 45 33 28 40 46 42 33 21 18 18 18 16 14 13 11 9
45 45 42 40 40 39 38 37 34 31 26 21 18 18 17 14 14 11 10 11 23 18 17 48 55 50 48 36 46 52 39 27 31 37 42 34 26 22 19 16 14 13 11
10 8 8 11 15 20 27 30 33 39 39 37 33 28 26 28 23 16 13 11 11 9 8 9 17 41 30 21 20 34 48 60 56 38 47 61 54 44 30 27 31 33 30
9 9 9 8 8 8 8 6 6 7 9 20 28 31 32 32 33 33 27 14 12 11 10 10 9 8 14 24 28 32 44 50 46 48 64 69 73 73 71 71 72 64 69
19 16 13 11 10 9 8 7 6 6 5 5 5 5 11 17 21 23 26 29 27 19 14 12 10 11 10 10 12 32 40 45 48 58 68 80 81 83 82 92 94 77 96
9 8 8 8 8 8 7 7 6 6 5 5 4 4 4 4 5 9 15 18 20 22 25 22 17 10 9 10 10 10 15 32 56 56 46 36 58 76 78 68 85 82 86
8 9 10 10 10 9 8 8 8 9 8 6 5 4 4 3 3 3 3 6 11 14 16 18 22 21 15 10 9 10 10 9 8 15 17 26 44 65 63 70 72 78 76
11 11 11 13 15 12 11 11 10 7 6 5 5 5 4 3 3 3 3 3 3 5 8 10 13 15 18 18 15 12 8 9 11 9 10 11 12 24 24 33 58 73 80
29 26 24 22 19 17 18 17 12 9 8 8 7 6 6 5 3 2 2 3 3 3 4 5 7 9 11 13 15 16 14 12 10 9 10 10 9 8 9 10 20 45 68
45 36 27 22 20 18 16 13 12 11 9 8 8 8 6 4 3 3 2 2 2 2 3 3 3 4 6 8 9 11 13 14 14 14 12 9 9 10 10 10 10 10 27
26 23 23 22 22 21 19 16 14 11 10 8 7 6 5 4 3 3 2 2 2 2 2 2 2 3 3 4 5 6 8 10 11 12 13 15 14 13 13 13 13 11 11
58 45 40 36 29 23 18 14 12 11 9 6 5 4 4 4 4 3 3 3 2 2 2 2 2 2 3 3 3 4 4 6 7 7 9 10 12 15 15 16 17 17 16

GFSGL_500_rhum_087.txt.gz
RH
27 12 26 37 27 46 52 62 74 87 73 78 65 62 64 45 25 26 18 20 14 14 12 12 11 15 16 12 16 24 23 25 25 27 22 21 28 18 15 18 18 20 16
46 36 14 20 40 30 46 47 40 60 52 66 79 80 72 59 24 29 31 17 13 14 12 12 11 12 15 11 10 11 15 19 20 22 21 18 17 14 14 14 11 9 10
95 92 39 28 27 40 34 38 45 49 50 53 73 79 78 67 66 28 33 35 27 18 15 10 11 11 12 14 12 9 9 10 13 18 21 17 18 13 13 16 14 13 12
96 96 92 66 48 47 55 52 42 44 51 61 68 83 78 79 68 62 33 39 35 27 20 18 19 12 11 13 14 12 13 14 15 18 20 20 16 15 14 15 14 13 13
97 97 97 96 83 54 66 89 70 46 48 54 48 62 67 73 68 66 50 44 42 39 33 23 18 15 18 15 15 12 11 12 12 14 16 16 14 13 12 11 12 14 13
95 95 96 97 96 90 84 90 95 86 73 56 53 45 53 58 57 57 65 50 60 52 26 27 33 21 14 15 14 9 9 14 17 13 11 14 13 12 14 16 13 10 10
84 91 89 96 96 96 96 96 96 95 88 74 67 56 54 58 58 54 48 62 65 62 53 40 29 26 18 14 13 13 9 8 20 18 13 11 9 7 8 9 14 18 17
25 27 26 26 82 96 96 96 96 97 96 89 94 92 77 78 72 62 57 49 60 55 48 52 55 48 29 30 27 17 12 9 7 6 6 6 6 8 12 16 19 20 21
18 22 14 14 48 88 85 86 96 95 97 97 97 96 96 93 87 92 73 68 62 62 59 47 34 41 47 40 35 31 23 10 10 8 8 8 9 10 9 9 10 9 12
31 25 23 24 26 21 25 23 66 90 95 97 97 96 96 95 96 94 95 74 64 58 61 61 56 40 34 38 35 34 43 27 14 8 8 10 13 15 17 19 19 14 11
40 32 29 25 22 15 15 23 20 20 79 92 96 96 96 97 93 79 82 93 93 89 71 66 56 48 42 40 35 32 32 37 34 26 21 22 24 24 22 20 18 12 13
48 42 34 24 22 22 18 12 15 37 13 30 72 87 94 94 97 96 93 93 78 66 70 74 63 74 82 60 35 35 33 28 24 25 25 22 20 20 20 19 17 16 16
56 50 38 28 21 19 18 17 15 12 10 8 8 11 36 82 87 93 95 95 86 69 68 71 68 51 42 41 62 74 60 37 29 22 18 18 16 16 18 20 20 20 19
58 54 45 39 30 22 23 21 18 17 15 14 11 11 11 12 18 39 67 72 80 61 80 79 66 53 54 53 48 49 58 56 54 45 27 20 19 16 16 19 21 21 18
57 50 43 36 27 23 22 22 22 19 19 20 18 17 14 14 11 10 12 12 23 36 45 45 87 69 49 44 55 59 54 46 43 45 46 45 41 35 25 20 17 17 16
53 50 45 38 34 32 30 27 27 26 26 24 23 22 21 18 17 15 11 11 12 13 19 28 31 51 63 74 66 56 53 54 54 49 45 39 29 28 40 43 41 37 27
67 70 67 62 58 54 51 48 45 40 35 34 32 27 27 26 23 21 22 18 13 11 10 11 12 21 36 40 29 49 66 58 49 50 41 40 53 52 39 31 32 33 39
24 28 30 27 20 17 17 18 19 24 33 37 36 37 36 32 31 30 24 26 31 24 15 12 12 13 11 17 18 14 24 52 51 49 34 22 28 44 53 59 55 50 58
17 17 16 15 15 16 16 15 13 13 11 10 10 14 18 20 24 31 32 31 31 33 33 31 22 15 12 12 10 9 8 10 10 17 21 23 27 36 45 57 58 67 71
22 25 25 24 22 20 18 15 14 13 12 11 11 11 9 7 7 7 9 18 27 28 28 28 27 27 23 18 14 12 10 10 10 8 8 8 13 28 43 53 60 60 65
30 28 26 23 21 18 15 13 11 10 9 8 8 7 6 6 6 6 5 5 5 8 15 18 20 19 18 20 21 18 15 13 11 11 9 9 8 10 30 35 53 64 54
16 14 14 13 12 12 10 9 8 8 9 9 9 8 8 7 7 6 6 6 5 4 4 5 8 11 14 15 14 14 16 16 15 13 12 10 9 8 8 12 22 31 32
60 53 51 46 38 27 18 14 13 12 12 11 11 12 12 11 10 9 8 7 6 6 5 4 4 4 5 8 9 9 8 10 12 13 14 14 11 10 8 7 8 9 11
78 75 67 61 59 56 51 46 40 38 32 26 22 19 15 14 13 12 11 10 8 7 5 4 4 4 3 3 4 5 6 6 6 7 8 10 11 12 11 10 8 8 9
94 86 74 58 47 42 37 32 26 18 15 14 13 11 8 8 8 7 6 5 5 4 3 3 3 3 3 3 3 2 3 3 4 4 4 5 6 8 10 11 12 12 11
33 28 27 27 26 25 26 27 27 25 19 14 14 14 13 10 7 6 5 5 4 4 3 3 3 3 2 2 2 2 2 2 2 2 2 3 4 4 6 8 11 13 14

GFSGL_500_rhum_093.txt.gz
RH
95 86 44 56 41 38 30 38 61 71 78 75 66 47 36 54 43 31 25 14 8 9 10 10 9 12 15 16 16 23 28 29 26 24 22 20 19 19 18 17 15 12 13
93 96 96 86 47 36 32 30 41 63 69 78 82 87 73 60 68 52 34 16 18 18 13 10 10 9 10 10 8 10 16 19 19 19 22 20 18 17 17 15 12 12 13
98 98 98 97 95 48 26 28 27 41 48 70 74 83 90 81 61 64 39 24 28 35 29 20 10 10 10 10 10 7 10 14 13 16 17 19 17 14 15 10 11 12 12
94 94 96 97 96 91 18 22 31 27 44 48 54 56 76 84 86 69 61 38 24 45 43 45 27 11 10 14 10 11 10 9 8 9 10 11 12 12 10 9 12 12 14
97 98 97 96 96 94 45 24 20 36 34 39 47 42 53 60 69 75 75 75 61 40 50 54 49 36 20 12 15 13 16 19 12 12 11 12 13 11 10 11 13 13 14
97 97 96 92 94 97 96 82 26 21 39 38 36 39 43 50 64 69 84 85 77 64 50 36 46 46 38 28 26 29 22 21 28 28 24 16 11 18 13 10 12 12 11
91 96 96 55 58 81 97 97 93 37 34 40 48 40 55 57 62 61 61 79 74 76 71 64 56 52 47 39 37 33 26 22 21 20 20 16 16 18 28 18 10 8 8
70 69 48 57 22 31 41 39 66 85 89 76 54 70 70 71 73 70 55 53 58 69 64 64 65 62 55 54 45 43 48 56 44 33 29 22 14 15 15 11 7 7 10
71 74 59 43 23 21 16 16 18 41 52 89 97 96 86 86 95 90 68 60 70 62 56 61 61 57 51 57 59 56 52 41 28 22 23 24 19 15 12 8 8 8 12
72 64 54 45 38 27 19 24 21 19 15 13 12 30 62 88 96 97 97 91 76 81 87 61 66 72 68 59 54 52 48 48 48 48 43 34 35 32 16 10 8 8 8
63 59 56 52 48 42 38 36 34 30 25 20 15 16 15 57 87 90 88 97 98 95 93 86 85 89 94 78 71 79 66 56 51 42 38 47 41 38 38 27 16 9 8
58 65 59 49 46 38 35 31 30 32 28 20 17 15 18 21 35 60 68 76 92 91 97 93 92 96 96 96 91 76 74 69 75 75 62 54 49 43 38 35 32 31 30
56 59 58 32 29 30 30 28 26 27 30 24 18 16 14 14 20 16 31 83 99 88 91 78 79 87 95 95 95 95 75 69 74 78 82 76 73 68 42 34 35 33 31
53 52 47 40 34 28 29 31 28 23 26 29 23 19 16 14 14 13 11 9 15 71 69 94 87 64 64 74 78 93 92 90 81 79 79 75 67 59 60 66 65 59 49
63 77 74 62 62 47 37 33 32 27 24 25 26 23 23 17 14 13 12 12 13 11 10 19 18 33 50 54 46 55 71 81 82 75 67 65 67 66 59 57 57 48 43
75 65 63 81 77 72 58 51 50 44 39 35 43 35 28 21 18 16 15 12 12 13 15 16 15 12 10 18 35 46 39 39 49 49 58 46 51 62 67 65 48 42 43
100 98 100 100 91 81 66 63 53 51 58 55 44 52 40 26 26 23 21 18 15 12 12 12 15 15 17 16 12 12 15 24 29 30 33 34 28 31 35 48 51 51 49
75 76 85 88 86 83 71 66 58 51 51 48 55 56 52 44 38 35 31 31 27 24 20 14 13 14 16 16 17 17 17 16 14 12 12 22 28 29 37 34 34 39 46
90 80 77 73 65 65 64 60 56 55 49 51 52 50 46 40 36 35 37 34 33 33 32 28 26 21 14 13 16 15 17 18 18 18 17 13 12 10 11 19 26 32 33
38 54 86 87 75 60 48 41 36 33 35 36 37 40 48 53 51 51 50 48 47 45 44 43 41 38 37 34 27 20 21 20 16 16 17 19 16 18 14 12 9 9 9
26 22 28 42 58 52 32 21 15 13 13 16 17 17 17 18 19 21 22 24 27 27 27 27 25 25 27 30 33 36 36 34 32 29 26 24 21 18 17 15 14 16 14
47 26 19 27 30 29 28 24 22 21 20 23 25 25 25 26 24 20 18 16 14 13 12 12 12 12 11 11 11 12 12 16 20 23 27 30 30 30 26 22 18 14 14
77 41 20 22 40 47 45 41 37 35 33 32 30 30 29 28 27 26 25 24 22 20 18 16 14 12 10 8 8 7 7 7 7 8 12 15 21 24 25 24 23 20 19
96 75 35 23 24 34 42 41 36 32 30 28 28 28 24 21 20 19 19 19 18 18 16 15 14 13 11 10 9 8 7 6 6 6 5 5 5 5 6 6 8 10 12
58 86 90 90 84 72 55 44 38 32 30 29 28 28 29 33 37 39 38 36 32 31 31 30 27 24 20 18 16 13 11 10 8 6 6 6 6 5 5 5 5 5 6
77 88 91 100 100 97 96 94 90 86 83 83 82 79 75 68 56 44 38 35 32 29 27 24 22 19 16 14 11 9 8 7 7 6 5 4 4 3 3 4 4 4 4

GFSGL_500_rhum_096.txt.gz
RH
69 48 52 59 35 39 38 39 43 55 62 85 78 81 56 57 59 52 41 19 8 8 10 10 9 11 13 14 17 16 22 25 23 22 18 16 17 18 18 19 19 18 16
92 84 94 86 81 59 44 39 44 60 71 77 81 76 76 78 59 69 66 50 37 14 18 17 10 10 10 10 10 12 12 17 20 23 20 18 19 18 18 17 16 15 17
90 86 81 91 100 94 79 45 36 40 60 70 76 84 85 87 86 79 73 56 44 26 26 25 23 12 10 10 10 11 9 8 10 14 17 17 18 17 14 12 14 15 16
98 97 99 87 97 95 94 86 40 32 36 41 50 63 85 87 84 80 75 75 55 28 31 46 46 38 28 20 17 10 10 10 10 12 11 10 10 10 10 10 13 14 14
94 95 96 96 85 86 86 97 93 30 29 38 34 45 57 61 62 80 82 83 77 72 39 35 48 46 48 41 25 23 21 15 14 16 16 11 11 11 10 11 13 12 13
72 81 95 97 94 94 86 83 92 46 16 20 32 37 46 50 49 50 65 67 76 79 76 64 52 41 46 50 44 35 22 32 28 26 26 29 30 26 15 16 21 12 12
69 67 69 90 94 63 78 94 96 94 84 50 23 24 42 40 43 41 46 54 62 71 85 86 81 70 58 61 67 63 50 40 27 28 28 26 28 26 26 27 27 26 16
71 63 80 87 87 92 49 29 48 62 94 78 75 42 30 29 41 44 53 59 63 60 58 66 76 72 80 77 70 60 54 51 48 52 55 40 33 31 32 30 28 23 10
70 73 66 78 60 38 64 72 25 21 19 32 47 54 68 73 51 57 61 70 71 66 57 59 58 60 64 67 69 72 68 60 56 50 41 39 28 20 17 16 16 14 10
63 60 66 76 61 46 27 26 30 22 17 20 40 32 18 23 72 86 96 94 81 91 92 79 66 82 70 58 64 77 73 65 59 55 55 57 50 46 41 37 38 36 17
70 70 66 66 59 47 36 24 23 32 31 30 26 23 19 17 15 19 36 87 96 98 93 92 98 92 85 89 87 85 92 96 90 68 63 53 50 54 44 46 48 44 42
72 73 78 78 66 58 50 47 41 38 35 33 31 28 23 18 16 16 18 43 72 81 77 84 87 93 96 95 97 92 86 89 96 91 82 78 68 57 58 54 46 44 39
67 64 82 81 59 64 64 55 42 41 34 30 29 30 28 24 18 16 16 18 19 17 62 75 99 97 98 98 81 72 87 92 86 88 96 82 77 71 74 70 70 67 62
58 64 61 58 66 67 65 55 42 34 31 29 29 27 29 26 21 18 14 13 12 11 10 30 71 84 69 91 84 77 76 87 86 81 80 90 97 88 80 78 75 70 69
72 96 98 84 84 66 51 53 49 40 35 29 28 31 26 33 31 21 19 16 13 12 14 14 12 17 30 18 22 82 70 62 65 70 64 72 93 90 86 79 69 63 61
89 83 95 98 99 94 71 51 54 50 54 44 33 34 34 27 24 28 28 25 22 17 13 13 14 15 15 14 11 9 9 10 14 28 41 48 56 71 76 72 63 55 52
96 98 98 96 94 95 72 61 64 60 73 75 61 50 41 40 35 33 36 40 32 26 20 18 15 14 14 16 14 13 12 12 12 10 8 9 17 38 45 45 45 47 44
86 89 92 90 86 79 84 88 74 71 88 93 84 65 52 46 39 42 46 45 49 52 37 29 28 22 17 14 14 15 16 15 12 12 12 12 11 10 10 9 12 16 25
98 98 92 74 79 94 98 97 92 91 97 95 90 69 58 50 43 38 33 28 29 35 41 47 40 31 30 29 24 21 18 18 21 22 19 14 13 11 13 13 11 10 10
4 3 4 4 8 17 43 67 77 72 71 79 78 73 69 58 45 39 38 36 34 36 37 34 36 35 30 32 32 32 33 32 29 23 20 23 24 21 16 14 15 16 16
5 5 5 5 9 14 17 24 39 66 78 77 75 61 51 47 43 41 40 40 39 38 39 42 42 43 45 46 45 42 40 38 36 36 36 34 32 29 27 26 24 17 15
7 7 7 10 13 23 25 22 24 33 49 70 76 57 36 23 20 17 17 16 18 19 19 19 18 19 21 22 23 23 22 22 23 24 28 31 32 31 32 32 31 29 27
12 11 12 21 37 33 35 32 22 29 39 40 38 35 30 25 23 24 22 23 23 22 22 21 20 19 18 17 15 14 13 12 11 11 10 10 10 11 14 18 21 24 25
21 21 24 27 37 52 60 38 20 24 41 49 47 43 38 36 35 33 30 29 29 30 30 28 26 24 22 19 18 15 14 12 10 9 8 7 7 6 6 6 6 6 7
33 65 44 36 52 96 96 64 31 22 24 32 40 42 40 36 32 29 27 24 21 18 19 21 26 29 29 29 29 28 26 22 18 14 11 9 8 7 6 6 6 6 6
94 96 79 89 80 59 61 73 82 81 69 60 52 45 47 49 48 46 46 50 55 56 56 56 54 47 42 37 30 24 18 12 10 9 8 8 7 7 6 6 5 5 4

GFSGL_500_rhum_102.txt.gz
RH
90 87 60 36 33 29 33 34 30 47 72 94 69 73 41 32 35 43 39 40 40 30 16 20 18 16 8 8 9 9 12 10 10 13 17 18 18 18 19 27 21 17 13
95 77 78 72 81 42 42 47 38 38 40 43 61 60 72 71 66 53 55 51 51 44 25 12 12 10 14 17 9 8 8 6 7 8 10 13 14 17 17 18 17 14 9
83 83 91 89 79 73 79 78 89 52 45 41 50 62 74 74 83 72 79 72 71 68 49 41 21 21 24 24 16 10 9 9 8 8 11 10 11 12 12 11 10 9 8
78 71 70 92 94 88 82 92 95 98 98 94 60 68 86 80 82 83 82 83 81 78 68 50 34 27 33 42 46 38 24 22 25 22 19 11 12 10 10 9 9 11 8
74 67 70 75 84 94 89 81 94 96 98 93 98 94 60 74 67 76 67 85 94 86 81 80 65 52 40 48 45 48 50 47 48 35 28 28 16 14 17 23 23 26 18
61 78 97 97 96 89 96 89 94 82 87 86 82 94 98 67 68 71 69 66 90 88 73 68 77 73 83 77 60 53 45 47 49 49 48 39 30 30 36 30 31 33 38
71 73 69 86 92 94 76 84 92 80 88 98 97 100 98 85 62 70 67 80 76 63 55 66 67 79 84 78 81 87 80 71 64 58 64 60 58 50 50 44 38 39 43
64 71 71 65 64 60 62 73 72 58 71 80 85 93 96 99 71 46 54 54 72 62 56 49 44 60 77 86 85 87 90 85 81 84 80 71 69 68 64 61 54 50 43
86 72 72 72 59 58 56 57 57 62 87 64 60 48 54 53 82 77 55 47 62 56 62 59 58 62 68 87 87 78 76 69 75 78 85 87 86 79 73 61 58 57 61
71 69 68 61 66 69 62 60 60 56 60 82 77 58 52 48 42 46 47 54 70 53 36 32 45 72 77 72 72 84 73 70 68 65 73 72 68 67 68 58 62 66 59
52 50 54 53 60 74 71 65 62 62 56 48 59 45 24 28 37 37 40 39 29 24 27 54 52 29 53 78 82 72 75 80 85 72 77 81 82 88 84 83 85 88 82
28 35 38 42 34 35 44 53 67 63 60 50 33 32 31 26 26 26 25 23 19 16 17 16 18 31 31 37 48 62 62 74 83 89 93 92 88 89 88 87 79 68 75
16 14 16 20 38 56 43 31 46 59 70 62 52 32 31 31 33 30 30 29 30 28 24 20 19 19 18 19 23 17 19 43 85 91 96 94 85 90 90 90 69 74 80
28 26 23 20 18 22 42 64 65 63 68 75 64 48 49 50 48 41 39 34 33 32 29 27 24 21 19 17 17 16 16 13 12 35 57 84 85 82 83 74 56 66 68
47 47 42 38 39 52 42 36 50 64 66 70 87 73 62 62 63 53 48 42 39 34 32 30 31 30 26 23 20 17 16 16 15 13 12 11 16 41 40 29 14 12 30
66 67 70 67 59 51 59 63 48 84 59 97 62 72 74 66 70 72 67 58 48 43 37 38 36 35 35 32 26 25 22 22 21 17 16 18 18 15 12 11 11 10 9
62 65 63 58 63 71 71 72 69 56 85 56 59 44 78 93 83 77 74 66 59 49 43 43 41 39 38 35 33 31 30 27 26 24 23 23 22 21 19 18 19 17 15
45 50 54 58 62 64 64 62 67 86 86 67 77 87 83 91 97 99 94 87 79 72 63 54 46 45 45 44 39 35 32 31 28 24 22 22 20 19 18 19 18 17 15
10 12 13 23 47 62 69 74 75 67 70 84 96 83 75 82 90 88 93 95 96 94 84 69 61 57 50 48 58 60 58 47 36 33 33 28 26 22 21 18 16 15 14
30 25 21 19 16 12 8 6 12 29 42 46 45 45 60 56 68 77 85 89 85 85 83 78 76 78 75 69 71 78 73 72 62 51 39 37 37 30 29 28 23 19 20
45 55 52 36 22 15 12 8 7 7 6 5 9 20 26 27 24 20 19 14 18 23 26 30 40 44 55 68 67 66 64 60 60 60 59 56 51 47 43 38 34 29 27
17 22 52 53 48 34 17 12 11 10 9 10 9 14 22 22 21 20 18 11 8 5 4 4 6 9 17 44 63 76 72 62 57 52 46 46 44 38 40 38 35 31 28
28 23 25 43 34 31 29 27 25 26 27 28 26 24 20 18 16 16 11 7 6 8 9 12 14 17 22 32 38 50 58 54 55 52 46 40 33 28 29 29 26 23 20
42 40 23 18 42 36 33 30 30 32 28 18 14 11 10 10 9 8 9 14 19 25 25 25 28 31 33 36 37 36 36 35 35 33 31 29 27 24 22 20 18 17 17
51 72 69 54 36 38 36 34 28 19 15 14 13 12 12 11 10 16 22 35 42 37 30 25 29 35 39 40 36 33 29 28 30 33 35 36 37 38 35 33 33 26 20
43 68 86 82 72 50 45 27 20 18 17 18 30 32 34 30 26 27 42 66 78 60 41 38 38 39 47 49 60 54 54 53 51 45 30 26 24 25 23 20 18 14 11

GFSGL_500_rhum_105.txt.gz
RH
58 52 85 42 31 31 34 34 43 80 90 84 87 84 64 36 30 38 40 37 36 24 23 17 20 22 21 10 10 9 10 9 11 10 9 13 15 17 15 16 16 16 14
94 96 98 91 89 67 38 34 41 39 41 61 86 84 91 83 63 57 52 58 53 52 49 40 21 19 11 10 20 13 9 10 10 7 7 6 8 10 12 13 13 12 9
90 94 96 98 94 88 83 58 49 58 43 49 44 49 68 86 81 90 71 79 79 79 67 62 47 32 19 24 26 26 20 12 9 9 8 7 9 10 10 9 8 10 13
63 71 73 76 73 76 81 78 82 87 86 59 66 61 49 64 83 83 91 92 92 87 88 80 68 55 38 39 36 42 44 37 27 25 24 25 15 12 12 14 20 21 19
71 66 65 69 65 78 78 79 77 87 94 90 84 93 95 70 96 92 85 85 94 96 91 95 90 89 82 61 55 56 53 47 49 50 52 43 35 36 36 26 30 32 30
74 68 59 61 64 74 85 76 87 82 85 91 84 95 95 89 98 95 92 84 80 90 94 97 95 89 84 83 82 81 70 67 52 47 48 50 48 45 39 40 38 34 34
71 64 69 66 68 86 95 97 92 90 90 90 97 92 98 96 98 98 95 83 84 79 76 73 77 72 89 81 91 97 87 86 90 86 78 74 77 72 67 57 56 56 56
74 65 58 55 61 63 58 61 74 78 74 84 93 95 98 90 90 96 95 63 67 78 74 80 82 74 72 66 70 76 82 88 87 91 94 83 80 82 77 79 73 70 64
86 74 72 80 64 61 56 55 56 58 65 68 64 63 65 55 57 64 64 87 90 66 66 70 84 77 71 58 55 63 72 85 88 82 80 78 76 74 80 84 81 80 74
80 83 80 74 73 72 64 60 54 58 57 53 64 66 58 56 55 55 43 49 52 61 70 66 90 57 50 38 35 60 72 78 81 88 86 70 64 66 64 66 71 72 70
61 54 52 54 53 53 51 53 58 61 57 50 53 51 56 70 66 50 49 44 45 50 43 43 45 48 54 60 56 47 46 56 76 85 74 73 78 82 80 70 69 71 80
35 33 36 35 33 34 43 44 42 56 43 54 46 54 56 47 50 49 31 28 35 39 50 40 32 20 17 19 22 31 35 43 56 49 42 41 68 78 84 89 89 82 80
20 16 18 14 14 18 19 26 22 22 22 38 50 53 61 58 48 35 34 29 28 27 24 22 22 21 19 19 20 21 20 21 19 17 16 17 20 59 90 93 90 84 89
20 19 17 17 17 17 17 17 18 26 25 16 17 17 33 56 62 54 36 32 32 33 31 31 33 33 31 28 26 23 22 20 18 18 18 17 16 15 12 11 11 24 51
35 32 30 27 25 24 22 21 22 22 20 26 35 36 54 45 48 59 46 40 39 39 39 39 36 38 34 33 31 31 32 31 29 26 24 22 20 21 22 20 18 17 17
44 44 40 37 35 32 32 32 29 26 28 46 79 47 44 64 69 78 85 63 57 46 44 47 49 52 48 46 39 37 40 38 34 35 36 31 29 29 29 27 25 24 22
36 39 44 49 55 60 64 68 61 53 47 38 40 54 55 57 75 98 91 93 85 72 74 69 72 68 65 62 58 53 50 46 41 39 34 31 31 29 28 26 25 24 23
22 25 29 32 38 43 48 54 61 64 58 63 75 71 65 57 68 75 70 76 72 62 86 99 98 95 87 78 72 66 59 53 47 44 41 33 32 32 34 35 33 28 25
18 12 10 9 8 10 18 31 42 53 55 58 64 66 67 68 72 85 92 80 74 88 100 96 94 95 96 98 98 92 86 79 70 64 58 54 50 46 45 44 43 42 45
42 40 40 34 23 21 16 13 14 14 15 26 40 46 60 76 76 73 72 74 77 78 76 70 65 68 69 58 61 69 77 76 72 67 66 66 68 69 66 63 61 58 53
36 39 42 49 51 55 52 43 35 28 24 19 18 12 7 6 7 8 7 8 20 31 35 31 24 24 20 15 14 14 15 13 10 16 18 21 27 35 43 46 46 44 42
36 36 38 35 37 31 29 26 24 32 46 44 38 32 14 11 11 11 8 8 9 11 17 18 18 17 16 14 11 7 6 5 5 6 9 13 18 23 27 34 40 44 43
38 44 65 67 92 73 37 24 20 28 35 37 42 38 30 25 23 18 17 18 19 20 19 15 11 10 9 8 7 9 11 11 15 21 25 30 31 32 32 32 30 27 25
15 22 39 47 39 91 99 55 45 39 42 41 38 36 35 32 30 26 25 20 14 11 10 9 10 11 11 15 18 26 24 25 29 32 33 33 29 25 27 30 29 30 37
39 50 56 84 74 46 55 55 74 56 48 49 46 42 41 40 38 24 14 13 12 11 12 13 19 24 31 36 37 33 29 26 25 32 42 44 45 45 36 24 22 21 22
27 37 48 62 82 88 92 94 86 86 79 67 54 41 31 23 18 16 15 17 25 27 24 23 36 53 60 71 71 69 67 55 52 56 56 41 32 30 27 26 25 22 19

GFSGL_500_rhum_111.txt.gz
RH
18 16 17 17 16 18 21 22 36 58 81 81 90 82 78 54 41 36 33 30 28 20 18 19 24 19 24 21 20 11 13 11 10 7 7 13 8 10 9 10 11 12 16
15 17 15 19 15 15 16 20 29 33 47 64 80 90 83 60 61 41 34 33 39 41 42 41 43 40 22 18 16 11 13 16 11 10 8 8 16 15 10 10 10 11 11
48 70 54 50 84 96 52 39 31 33 29 30 43 73 74 85 81 82 87 75 74 79 68 61 60 66 54 40 36 28 24 27 29 27 21 15 15 17 15 18 12 16 12
90 89 87 91 97 98 96 93 78 78 77 69 46 47 42 47 56 57 73 84 90 86 85 90 87 91 76 66 60 54 48 47 40 48 51 46 43 40 45 37 31 38 36
96 97 97 97 97 95 95 98 97 97 94 96 92 90 96 74 48 59 66 57 75 73 79 88 96 97 100 95 92 93 96 92 74 74 64 59 55 51 53 57 54 48 42
98 100 98 96 96 96 96 96 99 99 99 99 95 92 95 97 97 96 94 85 87 83 80 92 92 93 97 86 97 96 94 88 88 88 93 86 87 91 92 80 74 74 71
97 96 96 97 95 88 96 97 99 99 99 99 97 98 92 87 90 98 95 94 89 91 87 93 97 96 92 88 92 69 84 80 78 84 85 91 86 88 92 88 86 90 87
95 96 96 95 95 96 98 100 100 100 96 99 99 97 97 96 99 93 92 98 99 97 94 93 98 100 97 86 85 84 83 82 83 82 74 70 57 55 72 78 86 86 87
96 96 92 83 76 82 90 87 76 85 84 91 100 87 80 91 96 95 97 96 89 75 67 98 99 90 95 84 72 76 79 89 87 81 85 73 60 56 59 70 78 86 86
95 89 84 83 82 86 68 72 79 88 67 74 80 80 79 74 74 75 85 85 72 67 83 70 65 81 95 100 100 95 86 75 67 75 84 73 55 48 44 45 56 65 79
95 92 96 94 95 95 93 86 95 95 83 69 65 64 63 64 67 66 62 65 73 69 66 60 59 52 51 50 54 61 60 58 63 66 70 74 67 60 62 55 56 56 50
96 96 96 94 93 86 89 84 80 79 72 76 72 64 54 51 57 64 62 59 62 60 55 55 58 62 56 44 32 37 49 50 49 44 31 33 42 31 32 38 40 26 17
56 82 91 91 90 63 47 40 37 37 34 32 32 38 38 27 36 39 57 64 40 45 56 52 55 55 51 43 38 31 29 30 28 25 23 20 20 20 21 22 20 19 19
19 16 22 34 32 27 19 18 18 18 19 21 22 15 14 20 29 38 36 41 37 25 27 37 40 49 54 62 52 39 39 37 32 32 37 40 38 36 35 34 34 32 33
28 27 26 24 23 20 17 16 14 13 15 16 18 19 16 15 13 14 17 23 27 22 35 22 26 40 44 52 56 56 53 56 55 51 48 49 52 52 50 51 53 51 46
31 31 31 32 33 35 35 36 32 31 30 29 28 28 28 29 27 23 23 20 20 19 20 27 29 44 55 70 80 86 83 74 69 71 70 75 76 77 78 78 80 82 81
41 41 40 39 38 39 42 43 45 47 46 43 41 38 36 34 34 33 32 32 30 34 34 36 36 51 84 59 95 100 100 100 100 99 98 99 100 98 100 94 92 88 90
20 22 24 26 27 26 27 29 30 30 30 30 32 33 35 38 39 40 45 49 51 59 63 68 70 64 63 88 89 82 84 97 94 97 94 95 95 95 83 80 79 73 75
21 20 19 17 16 15 16 15 15 14 14 14 13 14 16 19 23 29 35 44 48 51 57 64 74 78 77 76 77 77 74 73 69 69 71 75 76 79 78 74 68 59 49
28 30 32 31 33 35 38 41 42 39 36 37 34 29 26 22 18 14 11 10 11 15 23 33 42 50 60 67 72 72 76 80 72 65 67 63 52 40 32 24 23 22 20
21 21 21 20 19 19 20 22 26 30 34 38 41 41 38 32 32 34 34 36 37 28 23 25 26 25 19 13 10 9 10 10 8 9 12 17 20 20 18 17 18 18 16
13 13 13 13 13 13 15 16 18 19 18 18 20 35 46 35 35 34 31 31 34 42 43 41 42 44 36 21 14 11 10 11 14 14 13 14 16 19 20 16 10 7 6
5 5 5 5 5 4 4 5 6 9 14 19 22 31 41 39 63 44 38 46 47 42 34 29 28 32 30 29 26 24 23 25 25 24 23 20 15 10 8 8 8 9 12
7 7 7 7 7 6 6 6 5 5 5 7 11 15 25 86 76 55 90 95 90 73 48 32 35 36 37 38 36 35 35 34 32 24 16 11 10 10 10 12 18 32 37
9 8 6 5 5 5 5 6 6 6 38 89 78 58 68 70 100 100 94 83 83 75 60 53 48 44 42 42 40 40 38 30 19 14 14 17 19 22 33 42 51 58 52
6 5 6 10 12 12 12 14 15 14 26 58 69 76 100 98 92 85 90 85 84 78 78 76 68 61 52 45 39 31 24 20 23 28 32 37 48 57 60 64 69 66 56

GFSGL_500_rhum_114.txt.gz
RH
22 21 25 23 19 19 32 40 59 80 89 92 90 81 64 74 53 40 34 30 27 24 20 19 20 20 29 23 26 20 19 11 11 8 6 6 6 6 13 13 9 11 12
21 21 19 21 21 19 16 21 45 50 41 76 77 78 88 92 85 48 40 44 32 36 40 42 44 45 44 36 24 20 17 12 13 15 11 9 8 8 8 11 12 13 15
16 19 21 19 18 18 16 16 23 46 29 35 48 56 78 80 74 73 86 91 90 78 72 79 74 63 60 65 55 41 36 33 25 30 33 38 32 26 27 31 40 30 24
14 32 45 58 23 27 32 55 48 48 53 48 34 31 38 43 48 64 74 69 78 86 85 88 86 91 92 94 87 62 57 52 58 62 44 56 65 52 51 48 49 51 50
65 84 92 97 90 61 86 98 96 79 85 94 96 89 75 64 67 53 49 44 74 67 59 82 91 94 86 91 90 93 86 95 99 90 83 80 81 71 76 83 82 72 59
86 92 93 97 96 96 92 97 96 97 94 98 95 98 96 96 99 94 83 78 88 95 88 85 90 85 94 90 95 93 85 87 96 95 87 91 90 98 88 86 91 85 85
96 95 97 96 97 97 96 96 96 98 97 93 92 98 98 97 95 94 96 90 91 92 88 95 97 97 98 89 99 94 85 87 74 76 78 78 81 82 88 85 75 68 87
96 94 98 98 99 99 97 98 96 95 96 94 86 88 94 97 94 97 95 96 98 94 85 98 98 98 98 98 97 99 97 92 88 85 80 78 83 84 83 74 61 57 72
97 97 96 97 97 97 96 94 94 93 93 91 96 95 98 98 98 96 96 96 99 97 97 96 97 88 92 98 95 97 98 95 90 81 81 78 78 70 82 89 72 61 63
95 95 96 96 96 96 96 96 96 95 92 94 94 86 89 95 83 70 71 75 84 96 90 79 71 90 89 74 59 57 67 84 95 99 95 77 70 71 71 74 79 73 63
97 96 98 97 96 96 96 96 96 95 83 88 90 77 70 73 69 69 65 63 65 64 62 64 66 73 79 72 70 68 60 49 45 44 50 55 55 49 42 40 49 50 56
85 93 96 96 97 96 96 92 96 96 96 96 96 84 64 67 65 64 62 58 57 62 67 67 62 59 62 64 60 55 53 52 48 49 39 37 38 36 30 26 24 23 28
78 94 96 96 96 94 94 95 95 90 62 45 50 52 47 54 60 60 51 39 38 34 46 54 61 64 56 46 54 68 63 53 56 50 42 35 32 29 26 24 26 28 28
42 55 76 92 85 68 55 57 50 59 61 51 30 19 17 16 19 28 27 26 21 22 26 34 38 36 34 38 31 43 42 36 38 52 58 50 46 43 40 43 41 39 40
48 41 40 36 30 22 22 25 21 20 19 15 14 17 13 12 12 12 13 12 12 12 13 14 15 22 58 51 55 51 45 52 65 57 68 67 66 62 63 63 61 60 61
56 53 50 47 44 39 31 28 27 25 24 24 25 25 24 24 23 21 21 22 23 26 26 25 23 22 19 19 19 20 23 25 39 55 66 79 88 93 92 91 86 84 82
58 58 56 49 47 45 46 46 44 41 39 39 37 37 36 35 35 33 32 30 28 28 30 32 32 30 30 31 30 30 30 32 44 96 99 90 91 87 82 83 90 92 89
25 24 23 22 22 22 22 23 24 25 25 25 26 26 26 26 26 26 26 27 26 26 28 32 36 39 43 49 54 56 63 67 78 71 69 73 70 67 72 71 68 70 67
9 12 14 16 19 19 19 18 18 18 16 16 15 16 15 14 13 12 13 13 14 13 13 14 18 24 29 36 43 49 53 57 66 66 66 66 67 69 74 74 74 74 74
18 19 20 19 20 20 21 22 24 26 28 28 30 31 30 34 32 28 29 29 30 31 33 32 32 27 20 14 12 14 21 28 31 35 42 44 38 37 33 28 23 20 18
27 27 26 23 20 19 17 18 18 18 18 18 18 19 20 24 28 32 35 37 39 41 42 41 39 40 42 42 43 40 32 24 26 25 19 14 12 9 8 9 10 13 14
15 15 14 14 13 12 11 11 10 10 10 11 13 15 15 16 19 20 20 19 19 27 42 47 44 48 45 41 39 43 44 45 45 37 19 12 11 16 20 22 22 22 23
9 8 6 6 6 6 6 7 7 7 7 7 6 6 5 5 6 9 15 18 26 58 76 65 47 47 50 51 48 41 35 34 28 24 24 28 30 30 31 33 32 29 23
7 8 9 10 11 11 10 9 8 6 6 6 6 6 6 6 6 6 6 9 14 39 65 81 85 79 75 81 79 60 40 35 33 36 39 39 39 39 38 36 29 20 15
12 13 14 13 11 9 7 6 5 5 6 8 8 9 14 81 68 75 33 56 53 64 62 76 92 92 96 90 65 54 49 43 43 44 43 42 40 38 33 23 19 22 26
16 16 14 12 9 7 6 6 10 14 14 14 14 12 19 82 83 97 100 100 100 97 92 87 82 77 75 74 75 78 72 67 63 58 50 38 28 24 29 36 38 53 64

GFSGL_500_rhum_117.txt.gz
RH
19 25 34 35 34 56 69 66 77 78 85 90 83 82 78 64 52 44 34 32 25 22 18 18 17 18 18 23 19 19 20 18 14 13 14 11 9 8 8 10 10 12 13
16 17 19 22 27 26 21 31 34 48 64 83 88 86 84 74 81 76 54 38 48 51 47 44 40 42 43 51 43 36 29 24 22 21 20 26 31 30 25 20 22 24 31
14 17 19 19 22 22 21 18 17 19 37 57 32 63 71 74 86 84 68 60 73 73 68 63 69 78 79 81 84 78 70 53 49 44 32 40 40 46 50 45 43 41 43
14 16 15 16 16 16 19 17 17 17 15 40 31 32 39 42 55 73 74 76 82 76 68 94 82 86 88 93 98 93 91 79 76 76 69 82 63 75 68 58 54 53 69
15 16 16 22 30 34 43 25 22 32 40 29 48 35 39 42 42 62 55 42 42 45 55 80 80 85 91 97 94 96 93 88 88 89 96 87 95 98 95 90 81 78 79
32 29 34 39 90 94 95 97 91 62 76 93 57 76 88 97 91 92 91 96 89 65 54 81 91 95 88 93 88 93 91 92 92 84 91 95 96 93 89 90 98 97 92
72 84 86 97 98 95 90 96 95 94 98 91 79 91 98 86 90 90 87 90 85 84 85 86 87 91 83 91 93 82 81 76 81 97 94 83 72 86 91 92 87 84 80
90 97 98 98 96 96 97 97 92 94 96 94 94 94 99 98 99 92 100 91 89 96 92 85 85 80 79 88 92 93 94 93 89 90 92 97 86 84 82 86 92 89 79
93 92 90 97 95 96 98 98 94 98 96 97 97 94 96 97 97 96 94 98 95 94 95 95 99 99 95 92 87 82 84 88 70 80 86 91 93 83 79 84 79 66 69
96 97 94 96 97 97 98 98 96 97 97 97 97 97 96 95 96 96 95 96 91 85 88 86 83 89 95 89 83 92 93 75 70 69 62 54 51 62 78 62 52 51 44
94 96 95 97 96 97 97 97 96 97 96 97 97 97 96 96 94 90 90 86 79 72 66 64 67 66 63 63 66 64 69 71 67 63 55 54 54 51 45 43 41 38 37
89 96 96 96 97 98 97 97 97 96 96 97 96 96 99 98 95 83 75 72 70 69 66 62 55 51 56 64 66 64 57 50 47 46 54 61 56 52 44 41 38 32 30
85 95 91 95 94 97 97 96 96 96 96 97 95 96 96 95 96 90 75 60 57 59 60 55 40 32 34 30 28 35 42 41 39 37 28 27 36 27 31 42 44 38 32
83 78 69 60 71 95 95 96 96 95 95 93 90 80 78 82 42 25 18 18 19 18 20 27 28 26 21 18 19 21 26 24 28 31 31 25 24 27 23 42 53 56 54
82 71 61 58 50 59 96 96 93 95 85 82 60 51 46 24 19 16 15 17 16 13 13 14 14 14 14 14 14 16 13 13 14 16 17 20 18 18 17 20 31 43 58
78 72 58 59 63 53 50 52 57 53 52 46 38 33 27 25 23 22 21 21 21 21 21 22 21 20 22 23 23 24 24 26 26 28 29 30 29 29 31 54 75 73 88
84 87 89 84 74 62 59 54 50 46 42 40 39 38 39 37 35 36 35 34 34 33 33 33 32 31 31 30 31 31 30 35 37 36 41 81 54 52 52 66 93 99 97
56 54 46 40 30 23 19 19 18 17 16 15 15 16 16 16 16 16 15 14 14 14 15 16 16 16 17 19 20 20 22 26 29 33 38 44 55 59 64 75 85 80 76
16 17 16 11 10 12 14 15 16 16 17 18 19 18 16 15 14 14 14 13 12 12 14 15 15 17 17 17 18 18 16 14 12 10 10 12 16 21 32 44 52 58 60
15 16 16 16 17 16 18 20 23 28 31 32 31 32 31 32 32 32 32 32 30 32 30 33 40 41 40 39 40 41 41 41 39 38 34 28 20 14 14 18 19 18 18
13 13 14 14 14 14 14 14 15 14 14 14 13 13 13 12 12 13 14 15 16 18 20 22 24 29 33 38 50 54 51 52 53 50 49 45 51 50 52 49 40 29 19
8 8 8 8 8 8 8 8 7 7 6 6 6 6 6 5 5 6 6 6 6 6 8 12 17 20 20 21 22 24 47 55 48 42 45 46 43 47 45 46 39 23 14
12 10 9 8 8 8 8 9 10 11 11 11 11 11 10 10 9 8 8 8 8 7 7 6 6 6 9 16 30 58 73 69 59 52 51 52 46 38 34 30 25 25 29
28 27 25 23 20 19 20 21 18 15 12 11 9 7 6 6 5 5 5 5 5 6 6 6 7 8 10 12 36 61 82 90 87 80 75 66 58 46 40 35 37 41 42
33 33 33 32 32 33 30 22 16 13 10 8 6 6 7 10 11 12 13 13 19 29 63 75 76 45 33 32 39 45 71 100 100 98 92 86 78 61 52 51 52 52 48
35 37 40 40 39 32 24 18 13 9 7 7 11 13 12 11 12 12 15 31 71 93 100 100 100 89 94 90 84 76 86 88 89 91 90 86 82 81 76 64 44 30 25

GFSGL_500_rhum_123.txt.gz
RH
40 49 50 59 66 65 61 62 82 62 58 53 44 45 36 31 32 44 54 45 29 33 35 23 18 20 22 24 24 32 38 34 29 28 34 29 26 28 30 33 34 29 30
42 40 38 37 62 65 68 69 80 82 79 82 63 62 71 76 74 66 68 54 49 48 38 35 32 33 43 46 51 53 62 65 72 74 65 53 47 44 46 49 44 55 50
24 28 30 34 28 29 34 46 56 76 77 79 85 92 93 90 90 83 73 61 58 70 64 44 45 52 54 57 66 79 83 83 90 98 94 81 79 89 85 74 73 60 77
16 16 15 15 21 26 26 25 24 28 28 36 31 58 67 66 70 80 83 77 77 83 83 68 72 92 97 95 94 89 91 95 93 97 93 82 79 74 94 77 81 95 76
13 14 15 14 14 15 16 21 20 24 21 19 18 17 17 23 38 46 45 65 69 80 86 81 86 91 83 80 96 96 95 93 94 98 97 92 84 77 75 77 77 80 92
31 20 20 21 22 27 31 34 36 42 54 45 22 29 27 30 38 26 27 38 34 34 40 52 65 60 58 62 69 76 80 84 81 88 88 96 90 84 87 92 93 88 85
98 82 54 62 39 24 30 38 48 50 66 89 85 93 99 98 97 96 43 27 40 39 60 58 77 86 89 94 79 84 91 87 84 85 86 90 89 93 92 92 94 87 81
98 99 98 99 82 55 44 50 62 63 69 96 94 100 90 98 97 92 72 63 58 54 97 96 88 93 95 98 97 99 93 88 89 88 86 93 94 97 93 79 70 73 81
99 99 97 91 83 72 92 77 73 98 84 87 94 88 94 95 88 83 82 86 82 67 90 98 95 85 96 95 96 98 96 99 97 94 96 94 88 96 95 82 72 72 71
98 97 97 94 94 91 90 98 93 91 98 94 97 96 86 99 96 87 85 93 92 79 78 96 96 99 99 100 100 99 98 98 96 94 93 90 86 87 83 76 67 63 56
97 97 97 99 90 94 93 93 92 92 97 96 97 97 98 98 99 99 92 99 99 99 98 98 98 97 97 96 96 96 95 93 85 72 62 59 55 55 55 57 57 54 50
96 97 97 96 96 96 99 98 92 98 97 97 97 97 97 97 98 98 97 97 98 97 98 97 97 97 97 96 95 94 94 91 79 59 52 42 32 29 32 29 28 28 28
95 96 95 96 97 96 96 95 97 96 97 97 97 96 96 97 97 97 97 97 98 97 98 97 96 96 95 96 96 95 94 89 71 54 35 24 27 29 24 16 14 14 15
94 94 96 94 95 94 93 92 89 85 89 90 95 97 95 96 97 96 96 96 96 96 95 95 94 94 94 92 88 68 29 18 17 17 19 17 34 38 25 17 25 48 37
86 79 62 64 66 64 53 58 66 62 57 60 98 96 95 96 96 96 95 95 95 94 91 91 89 83 84 85 87 93 88 65 37 25 26 26 24 24 21 27 74 62 59
81 78 68 66 68 75 70 71 66 61 60 65 63 66 94 95 95 94 88 84 77 81 78 71 69 86 84 74 41 37 36 33 31 32 31 32 32 33 32 33 34 37 51
50 64 54 54 73 72 69 70 71 71 72 60 58 61 63 54 37 36 24 18 18 17 16 14 13 13 12 13 15 22 20 15 15 15 15 13 14 15 17 17 21 23 23
42 52 53 48 50 48 44 38 32 28 30 27 26 24 26 23 23 17 14 12 11 12 14 15 14 15 15 15 15 15 14 16 20 22 18 15 16 19 18 19 14 16 17
41 42 37 35 31 25 22 19 13 12 11 10 9 8 7 7 6 6 5 5 6 6 6 7 8 10 11 11 12 14 17 20 24 27 29 31 32 36 38 42 43 48 49
17 11 10 9 8 6 5 4 4 4 5 6 7 6 9 10 9 9 9 11 13 13 14 12 12 10 7 6 6 6 7 8 8 8 8 8 9 11 14 15 18 19 21
3 3 4 6 6 6 6 7 8 9 9 9 10 9 9 10 10 11 11 11 12 13 16 18 19 19 19 19 17 14 11 9 9 8 8 8 7 7 6 6 7 12 17
5 6 7 8 9 10 10 12 12 11 12 13 13 12 14 16 17 17 18 17 16 15 15 15 15 16 17 17 16 13 10 9 9 8 8 7 7 7 8 8 8 8 9
11 12 11 12 14 15 15 16 16 17 20 20 22 26 26 25 22 18 18 18 17 14 11 9 8 6 6 6 6 6 6 6 6 7 8 8 8 8 10 11 11 17 28
16 19 20 22 23 24 26 26 27 29 30 29 29 29 25 23 22 22 19 13 9 8 8 7 7 6 6 9 11 7 8 9 12 25 60 34 49 43 40 53 59 83 87
18 21 24 25 24 25 26 26 26 27 27 27 26 22 19 24 24 14 9 8 8 10 12 13 19 25 39 92 52 42 27 21 68 100 92 97 89 91 100 100 96 100 98
20 20 21 21 21 22 24 26 26 22 18 17 20 20 28 25 14 9 9 8 12 15 17 23 25 26 40 55 96 92 71 100 100 100 100 100 100 97 96 97 100 100 100